Weather History for KFUL - April, 2014

Change the Weather History Date:

Wednesday, April 2, 2014

  Actual Average Record
Temperature  
Mean Temperature 57 °F 61 °F  
Max Temperature 65 °F 71 °F 80 °F (2012)
Min Temperature 49 °F 51 °F 40 °F (1999)
Degree Days  
Heating Degree Days 8 5  
Month to date heating degree days 14 10  
Since 1 July heating degree days 565 1102  
Cooling Degree Days 0 0  
Month to date cooling degree days 0 0  
Year to date cooling degree days 55 22  
Growing Degree Days 6 (Base 50)    
Moisture  
Dew Point 44 °F    
Average Humidity 65    
Maximum Humidity 93    
Minimum Humidity 37    
Precipitation  
Precipitation 0.10 in 0.03 in 0.11 in (2014)
Month to date precipitation 0.21 0.06  
Year to date precipitation 3.25 8.50  
Since 1 July precipitation 4.56  
Snow  
Snow 0.00 in - - ()
Month to date snowfall 0.0  
Year to date snowfall 0.0  
Since 1 July snowfall 0.0  
Snow Depth 0.00 in    
Sea Level Pressure  
Sea Level Pressure 30.00 in    
Wind  
Wind Speed 5 mph (West)    
Max Wind Speed 14 mph    
Max Gust Speed 24 mph    
Visibility 10 miles    
Events Rain    
T = Trace of Precipitation, MM = Missing Value Source: NWS Daily Summary

Daily Weather History Graph

Daily Weather History Graph

Search for Another Location

Airport or City:

Trip Planner

Search our weather history database for the weather conditions in past years. The results will help you decide how hot, cold, wet, or windy it might be!

Date:

Astronomy

Apr. 02, 2014 Rise Set
Actual Time 6:37 AM PDT 7:13 PM PDT
Civil Twilight 6:12 AM PDT 7:38 PM PDT
Nautical Twilight 5:43 AM PDT 8:08 PM PDT
Astronomical Twilight 5:12 AM PDT 8:38 PM PDT
Moon 8:33 AM PDT (4/2) 10:32 PM PDT (4/2)
Length of Visible Light 13h 25m
Length of Day
12h 35m
Waxing Crescent, 11% of the Moon is Illuminated
Apr 2
Waxing Crescent
Apr 7
First Quarter
Apr 15
Full
Apr 22
Last Quarter
Apr 28
New

Hourly Weather History & Observations

Time (PDT) Temp. Dew Point Humidity Pressure Visibility Wind Dir Wind Speed Gust Speed Precip Events Conditions
12:53 AM 55.9 °F 45.0 °F 67% 29.96 in 10.0 mi Variable 3.5 mph - N/A   Overcast
1:53 AM 52.0 °F 48.0 °F 86% 29.96 in 10.0 mi Calm Calm - 0.05 in   Overcast
2:53 AM 52.0 °F 48.0 °F 86% 29.95 in 10.0 mi Calm Calm - 0.04 in   Overcast
3:53 AM 51.1 °F 48.0 °F 89% 29.94 in 10.0 mi Calm Calm - 0.01 in   Clear
5:53 AM 50.0 °F 46.9 °F 89% 29.95 in 10.0 mi Calm Calm - N/A   Clear
6:53 AM 48.9 °F 46.0 °F 90% 29.96 in 10.0 mi Calm Calm - N/A   Partly Cloudy
7:53 AM 52.0 °F 48.0 °F 86% 29.98 in 10.0 mi Calm Calm - N/A   Clear
8:53 AM 54.0 °F 45.0 °F 72% 29.99 in 10.0 mi Variable 3.5 mph - N/A   Clear
9:53 AM 59.0 °F 45.0 °F 60% 30.00 in 10.0 mi Variable 5.8 mph - N/A   Scattered Clouds
10:53 AM 60.1 °F 41.0 °F 49% 30.01 in 10.0 mi West 9.2 mph - N/A   Mostly Cloudy
11:53 AM 63.0 °F 41.0 °F 45% 30.00 in 10.0 mi Variable 6.9 mph 19.6 mph N/A   Mostly Cloudy
12:53 PM 63.0 °F 39.9 °F 43% 29.99 in 10.0 mi SW 10.4 mph 19.6 mph N/A   Partly Cloudy
1:53 PM 64.0 °F 39.9 °F 41% 29.99 in 10.0 mi WSW 8.1 mph 19.6 mph N/A   Scattered Clouds
2:50 PM - - N/A% - 10.0 mi West 11.5 mph - N/A   Clear
3:53 PM 64.0 °F 37.9 °F 38% 29.98 in 10.0 mi WSW 11.5 mph 19.6 mph N/A   Clear
4:53 PM 61.0 °F 39.0 °F 44% 30.01 in 10.0 mi West 9.2 mph 19.6 mph N/A   Mostly Cloudy
5:00 PM - - N/A% - 10.0 mi WNW 11.5 mph - N/A   Scattered Clouds
5:53 PM 57.0 °F 46.0 °F 67% 30.00 in 10.0 mi West 8.1 mph - 0.01 in Rain Light Rain
6:53 PM 57.9 °F 42.1 °F 56% 30.00 in 10.0 mi West 6.9 mph - 0.00 in   Clear
7:53 PM 55.9 °F 43.0 °F 62% 30.02 in 10.0 mi West 3.5 mph - N/A   Clear
8:53 PM 55.0 °F 45.0 °F 69% 30.05 in 10.0 mi Calm Calm - N/A   Clear
9:53 PM 54.0 °F 45.0 °F 72% 30.07 in 10.0 mi Calm Calm - N/A   Clear
10:53 PM 53.1 °F 45.0 °F 74% 30.07 in 10.0 mi Calm Calm - N/A   Clear
11:53 PM 52.0 °F 45.0 °F 77% 30.07 in 10.0 mi ENE 3.5 mph - N/A   Clear